This is the latest recevied weather packets stored in our database for station/object VR2OT-10. If no packets are shown the sender has not sent any weather packets the latest 10 day(s).
| Time | Temp. | Humidity | Pressure | Rain* | Wind** | Luminosity | Snow |
|---|---|---|---|---|---|---|---|
| 1777923138 | 21.11° C | 85% | 1013.8 hPa | - | 3.58 m/s, 90° | - | - |
| 1777921337 | 21.11° C | 84% | 1014.1 hPa | - | 4.02 m/s, 90° | - | - |
| 1777919539 | 21.67° C | 87% | 1014.2 hPa | - | 4.02 m/s, 90° | - | - |
| 1777916839 | 22.22° C | 84% | 1014.8 hPa | - | 3.58 m/s, 90° | - | - |
| 1777915038 | 22.22° C | 81% | 1015.1 hPa | - | 4.02 m/s, 90° | - | - |
| 1777914138 | 22.22° C | 80% | 1015.1 hPa | - | 6.26 m/s, 90° | - | - |
| 1777912339 | 22.22° C | 80% | 1015.3 hPa | - | 5.81 m/s, 90° | - | - |
| 1777911438 | 22.22° C | 80% | 1015.3 hPa | - | 5.81 m/s, 90° | - | - |
| 1777909637 | 22.22° C | 82% | 1015.7 hPa | - | 4.02 m/s, 90° | - | - |
| 1777908738 | 21.67° C | 84% | 1016 hPa | - | 4.92 m/s, 90° | - | - |
| 1777906938 | 21.67° C | 87% | 1016.1 hPa | - | 4.92 m/s, 90° | - | - |
| 1777905138 | 21.11° C | 89% | 1015.8 hPa | - | 5.36 m/s, 90° | - | - |
| 1777903339 | 21.67° C | 88% | 1015.7 hPa | - | 4.47 m/s, 90° | - | - |
| 1777902438 | 21.67° C | 87% | 1015.7 hPa | - | 4.02 m/s, 90° | - | - |
| 1777900637 | 22.22° C | 86% | 1015.3 hPa | - | 4.02 m/s, 90° | - | - |
| 1777897938 | 21.67° C | 87% | 1015 hPa | - | 4.92 m/s, 90° | - | - |
| 1777897037 | 21.67° C | 87% | 1014.8 hPa | - | 4.02 m/s, 90° | - | - |
| 1777895238 | 21.67° C | 88% | 1014.7 hPa | - | 4.92 m/s, 90° | - | - |
| 1777894338 | 21.67° C | 89% | 1014.8 hPa | - | 4.02 m/s, 90° | - | - |
| 1777893438 | 22.22° C | 89% | 1014.8 hPa | - | 4.92 m/s, 90° | - | - |
| 1777892538 | 22.78° C | 87% | 1014.8 hPa | - | 3.58 m/s, 90° | - | - |
| 1777890739 | 22.78° C | 84% | 1014.5 hPa | - | 4.02 m/s, 90° | - | - |
| 1777889838 | 22.78° C | 86% | 1014.3 hPa | - | 4.47 m/s, 90° | - | - |
| 1777888938 | 22.78° C | 85% | 1014 hPa | - | 4.92 m/s, 90° | - | - |
| 1777886237 | 22.78° C | 81% | 1013.8 hPa | - | 4.47 m/s, 90° | - | - |
* Rain since midnight (hover to see other rain measurements)
** Current wind speed in m/s (hover to see current wind gust speed)